Location: Wingville
(42.9917°N, 90.4915°W)
Time: 00:37:21
(UTC+00:00)

UWE-3 - Pass Details

Date: 01 July 2022
Orbit: 583 x 677 km, 97.7° (Epoch: 16 August)

Event Time Altitude Azimuth Distance (km) Brightness Sun altitude
Rises 08:42:24 0° 24° (NNE) 2,895 ? -14.7°
Reaches altitude 10° 08:44:50 10° 36° (NE) 2,001 ? -14.5°
Maximum altitude 08:48:35 28° 96° (E) 1,202 ? -14.0°
Drops below altitude 10° 08:52:24 10° 155° (SSE) 2,037 ? -13.6°
Enters shadow 08:53:58 - 163° (SSE) 2,606 ? -13.4°
